Location: Oregon Trail
(41.1872°N, 102.0741°W)
Time: 18:35:36
(UTC+00:00)

Cosmos 494 Rocket - Pass Details

Date: 19 November 2019
Orbit: 742 x 771 km, 74.1° (Epoch: 10 December)

Event Time Altitude Azimuth Distance (km) Brightness Sun altitude
Rises 12:37:16 0° 342° (NNW) 3,249 6.9 -12.0°
Reaches altitude 10° 12:39:40 10° 345° (NNW) 2,315 6.2 -11.6°
Maximum altitude 12:44:55 71° 69° (ENE) 810 4.3 -10.6°
Drops below altitude 10° 12:50:05 10° 154° (SSE) 2,283 7.1 -9.7°
Sets 12:52:27 0° 156° (SSE) 3,199 7.9 -9.3°
